Simultaneous Nadir Overpasses (SNOs) Predictions

Prediction of SNOs between GOES-16 and AQUA Satellite Orbit:

Table of predicted SNOs for the next 14.0 days since TLE Epoch: 3/21/2020
Index Date Time (GOES-16) GOES-16 Lat,Lon AQUA Lat,Lon Distance(km) Time Diff (sec)
1 03/21/2020 18:35:37 -0.04, -75.17 0.08, -74.63 61.24 80
2 03/23/2020 18:23:26 -0.04, -75.16 0.70, -71.67 396.13 80
3 03/24/2020 06:44:41 0.04, -75.15 0.40, -76.83 191.38 80
4 03/26/2020 06:29:51 0.04, -75.14 -0.22, -73.87 144.27 80
5 03/26/2020 18:51:14 -0.04, -75.15 -0.87, -79.06 445.35 80
6 03/28/2020 06:17:40 0.04, -75.14 -0.85, -70.92 480.30 80
7 03/28/2020 18:39:03 -0.04, -75.15 -0.24, -76.11 109.23 80
8 03/30/2020 18:29:32 -0.04, -75.15 0.39, -73.15 227.08 80
9 03/31/2020 06:50:48 0.04, -75.15 0.72, -78.31 359.92 80
10 04/02/2020 06:38:37 0.04, -75.15 0.08, -75.35 23.35 80




NCC Satellite Simultaneous Nadir Overpasses (SNOs) Prediction Service
